Time,TemperatureF,DewpointF,PressureIn,WindDirection,WindDirectionDegrees,WindSpeedMPH,WindSpeedGustMPH,Humidity,HourlyPrecipIn,Conditions,Clouds,dailyrainin,SoftwareType,DateUTC
2013-08-26 00:05:00,59.1,58.0,30.29,North,9,0.0,0.0,96,0.00,,,0.00,Wunderground v.1.15,2013-08-26 04:05:00,
2013-08-26 00:10:00,59.1,58.2,30.29,North,9,0.0,0.0,97,0.00,,,0.00,Wunderground v.1.15,2013-08-26 04:10:00,
2013-08-26 00:15:00,59.1,58.2,30.29,North,9,0.0,0.0,97,0.00,,,0.00,Wunderground v.1.15,2013-08-26 04:15:00,
2013-08-26 00:20:00,59.1,58.2,30.29,North,9,0.0,0.0,97,0.00,,,0.00,Wunderground v.1.15,2013-08-26 04:20:00,
2013-08-26 00:25:00,58.9,57.8,30.29,North,9,0.0,0.0,96,0.00,,,0.00,Wunderground v.1.15,2013-08-26 04:25:00,
2013-08-26 00:30:00,58.9,58.1,30.28,North,9,0.0,0.0,97,0.00,,,0.00,Wunderground v.1.15,2013-08-26 04:30:00,
2013-08-26 00:35:00,58.8,58.0,30.29,North,9,0.0,0.0,97,0.00,,,0.00,Wunderground v.1.15,2013-08-26 04:35:00,
2013-08-26 00:45:00,58.7,57.9,30.29,North,9,0.0,0.0,97,0.00,,,0.00,Wunderground v.1.15,2013-08-26 04:45:00,
2013-08-26 00:50:00,58.7,57.9,30.29,North,9,0.0,0.0,97,0.00,,,0.00,Wunderground v.1.15,2013-08-26 04:50:00,
2013-08-26 00:55:00,58.7,57.9,30.29,North,9,0.0,0.0,97,0.00,,,0.00,Wunderground v.1.15,2013-08-26 04:55:00,
2013-08-26 01:00:00,58.6,57.8,30.29,North,9,0.0,0.0,97,0.00,,,0.00,Wunderground v.1.15,2013-08-26 05:00:00,
2013-08-26 01:10:00,58.6,57.8,30.29,North,9,0.0,0.0,97,0.00,,,0.00,Wunderground v.1.15,2013-08-26 05:10:00,
2013-08-26 01:15:00,58.5,57.7,30.29,North,9,0.0,0.0,97,0.00,,,0.00,Wunderground v.1.15,2013-08-26 05:15:00,
2013-08-26 01:25:00,58.4,57.6,30.29,North,9,0.0,0.0,97,0.00,,,0.00,Wunderground v.1.15,2013-08-26 05:25:00,
2013-08-26 01:30:00,58.3,57.5,30.29,North,9,0.0,0.0,97,0.00,,,0.00,Wunderground v.1.15,2013-08-26 05:30:00,
2013-08-26 01:35:00,58.3,57.7,30.28,North,9,0.0,0.0,98,0.00,,,0.00,Wunderground v.1.15,2013-08-26 05:35:00,
2013-08-26 01:45:00,58.2,57.4,30.28,North,9,0.0,0.0,97,0.00,,,0.00,Wunderground v.1.15,2013-08-26 05:45:00,
2013-08-26 01:50:00,58.1,57.3,30.28,North,9,0.0,0.0,97,0.00,,,0.00,Wunderground v.1.15,2013-08-26 05:50:00,
2013-08-26 01:55:00,58.0,57.2,30.28,North,9,0.0,0.0,97,0.00,,,0.00,Wunderground v.1.15,2013-08-26 05:55:00,
2013-08-26 02:05:00,57.7,56.9,30.28,North,9,0.0,0.0,97,0.00,,,0.00,Wunderground v.1.15,2013-08-26 06:05:00,
2013-08-26 02:10:00,57.5,56.7,30.27,North,9,0.0,0.0,97,0.00,,,0.00,Wunderground v.1.15,2013-08-26 06:10:00,
2013-08-26 02:15:00,57.3,56.5,30.27,North,9,0.0,0.0,97,0.00,,,0.00,Wunderground v.1.15,2013-08-26 06:15:00,
2013-08-26 02:25:00,57.1,56.3,30.27,North,9,0.0,0.0,97,0.00,,,0.00,Wunderground v.1.15,2013-08-26 06:25:00,
2013-08-26 02:30:00,56.9,56.1,30.27,North,9,0.0,0.0,97,0.00,,,0.00,Wunderground v.1.15,2013-08-26 06:30:00,
2013-08-26 02:40:00,56.7,55.9,30.27,North,9,0.0,0.0,97,0.00,,,0.00,Wunderground v.1.15,2013-08-26 06:40:00,
2013-08-26 02:45:00,56.6,55.8,30.27,North,9,0.0,0.0,97,0.00,,,0.00,Wunderground v.1.15,2013-08-26 06:45:00,
2013-08-26 02:50:00,56.5,55.7,30.27,North,9,0.0,0.0,97,0.00,,,0.00,Wunderground v.1.15,2013-08-26 06:50:00,
2013-08-26 03:00:00,56.3,55.5,30.27,North,9,0.0,0.0,97,0.00,,,0.00,Wunderground v.1.15,2013-08-26 07:00:00,
2013-08-26 03:05:00,56.2,55.4,30.27,North,9,0.0,0.0,97,0.00,,,0.00,Wunderground v.1.15,2013-08-26 07:05:00,
2013-08-26 03:10:00,56.0,55.2,30.27,North,9,0.0,0.0,97,0.00,,,0.00,Wunderground v.1.15,2013-08-26 07:10:00,
2013-08-26 03:20:00,55.9,55.3,30.26,North,9,0.0,0.0,98,0.00,,,0.00,Wunderground v.1.15,2013-08-26 07:20:00,
2013-08-26 03:25:00,55.8,55.2,30.26,North,9,0.0,0.0,98,0.00,,,0.00,Wunderground v.1.15,2013-08-26 07:25:00,
2013-08-26 03:30:00,55.7,54.9,30.26,North,9,0.0,0.0,97,0.00,,,0.00,Wunderground v.1.15,2013-08-26 07:30:00,
2013-08-26 03:40:00,55.4,54.6,30.26,North,9,0.0,0.0,97,0.00,,,0.00,Wunderground v.1.15,2013-08-26 07:40:00,
2013-08-26 03:45:00,55.3,54.5,30.26,North,9,0.0,0.0,97,0.00,,,0.00,Wunderground v.1.15,2013-08-26 07:45:00,
2013-08-26 03:55:00,55.1,54.5,30.25,North,9,0.0,0.0,98,0.00,,,0.00,Wunderground v.1.15,2013-08-26 07:55:00,
2013-08-26 04:00:00,55.0,54.2,30.25,North,9,0.0,0.0,97,0.00,,,0.00,Wunderground v.1.15,2013-08-26 08:00:00,
2013-08-26 04:05:00,54.9,54.1,30.25,North,9,0.0,0.0,97,0.00,,,0.00,Wunderground v.1.15,2013-08-26 08:05:00,
2013-08-26 04:10:00,54.8,54.2,30.25,North,9,0.0,0.0,98,0.00,,,0.00,Wunderground v.1.15,2013-08-26 08:10:00,
2013-08-26 04:20:00,54.7,54.1,30.25,North,9,0.0,0.0,98,0.00,,,0.00,Wunderground v.1.15,2013-08-26 08:20:00,
2013-08-26 04:25:00,54.6,54.0,30.25,North,9,0.0,0.0,98,0.00,,,0.00,Wunderground v.1.15,2013-08-26 08:25:00,
2013-08-26 04:35:00,54.6,54.0,30.25,North,9,0.0,0.0,98,0.00,,,0.00,Wunderground v.1.15,2013-08-26 08:35:00,
2013-08-26 04:40:00,54.5,53.9,30.25,North,9,0.0,0.0,98,0.00,,,0.00,Wunderground v.1.15,2013-08-26 08:40:00,
2013-08-26 04:45:00,54.4,53.8,30.24,North,9,0.0,0.0,98,0.00,,,0.00,Wunderground v.1.15,2013-08-26 08:45:00,
2013-08-26 04:50:00,54.2,53.6,30.24,North,9,0.0,0.0,98,0.00,,,0.00,Wunderground v.1.15,2013-08-26 08:50:00,
2013-08-26 05:00:00,54.1,53.5,30.24,North,9,0.0,0.0,98,0.00,,,0.00,Wunderground v.1.15,2013-08-26 09:00:00,
2013-08-26 05:05:00,54.0,53.4,30.24,North,9,0.0,0.0,98,0.00,,,0.00,Wunderground v.1.15,2013-08-26 09:05:00,
2013-08-26 05:15:00,53.8,53.2,30.25,North,9,0.0,0.0,98,0.00,,,0.00,Wunderground v.1.15,2013-08-26 09:15:00,
2013-08-26 05:20:00,53.8,53.2,30.25,North,9,0.0,0.0,98,0.00,,,0.00,Wunderground v.1.15,2013-08-26 09:20:00,
2013-08-26 05:25:00,53.7,53.1,30.25,North,9,0.0,0.0,98,0.00,,,0.00,Wunderground v.1.15,2013-08-26 09:25:00,
2013-08-26 05:30:00,53.7,53.1,30.25,North,9,0.0,0.0,98,0.00,,,0.00,Wunderground v.1.15,2013-08-26 09:30:00,
2013-08-26 05:40:00,53.6,53.0,30.24,North,9,0.0,0.0,98,0.00,,,0.00,Wunderground v.1.15,2013-08-26 09:40:00,
2013-08-26 05:45:00,53.5,52.9,30.24,North,9,0.0,0.0,98,0.00,,,0.00,Wunderground v.1.15,2013-08-26 09:45:00,
2013-08-26 05:50:00,53.4,52.8,30.24,North,9,0.0,0.0,98,0.00,,,0.00,Wunderground v.1.15,2013-08-26 09:50:00,
2013-08-26 06:00:00,53.2,52.7,30.25,North,9,0.0,0.0,98,0.00,,,0.00,Wunderground v.1.15,2013-08-26 10:00:00,
2013-08-26 06:05:00,53.1,52.6,30.25,North,9,0.0,0.0,98,0.00,,,0.00,Wunderground v.1.15,2013-08-26 10:05:00,
2013-08-26 06:15:00,53.1,52.6,30.24,North,9,0.0,0.0,98,0.00,,,0.00,Wunderground v.1.15,2013-08-26 10:15:00,
2013-08-26 06:20:00,53.1,52.6,30.25,North,9,0.0,0.0,98,0.00,,,0.00,Wunderground v.1.15,2013-08-26 10:20:00,
2013-08-26 06:25:00,53.0,52.5,30.24,North,9,0.0,0.0,98,0.00,,,0.00,Wunderground v.1.15,2013-08-26 10:25:00,
2013-08-26 06:30:00,52.9,52.4,30.24,North,9,0.0,0.0,98,0.00,,,0.00,Wunderground v.1.15,2013-08-26 10:30:00,
2013-08-26 06:40:00,52.8,52.3,30.24,North,9,0.0,0.0,98,0.00,,,0.00,Wunderground v.1.15,2013-08-26 10:40:00,
2013-08-26 06:45:00,52.8,52.3,30.25,North,9,0.0,0.0,98,0.00,,,0.00,Wunderground v.1.15,2013-08-26 10:45:00,
2013-08-26 06:55:00,52.8,52.5,30.25,North,9,0.0,0.0,99,0.00,,,0.00,Wunderground v.1.15,2013-08-26 10:55:00,
2013-08-26 07:00:00,52.7,52.4,30.25,North,9,0.0,0.0,99,0.00,,,0.00,Wunderground v.1.15,2013-08-26 11:00:00,
2013-08-26 07:05:00,52.7,52.4,30.25,North,9,0.0,0.0,99,0.00,,,0.00,Wunderground v.1.15,2013-08-26 11:05:00,
2013-08-26 07:10:00,52.7,52.4,30.26,North,9,0.0,0.0,99,0.00,,,0.00,Wunderground v.1.15,2013-08-26 11:10:00,
2013-08-26 07:20:00,53.0,52.7,30.26,North,9,0.0,0.0,99,0.00,,,0.00,Wunderground v.1.15,2013-08-26 11:20:00,
2013-08-26 07:25:00,53.1,52.8,30.25,North,9,0.0,0.0,99,0.00,,,0.00,Wunderground v.1.15,2013-08-26 11:25:00,
2013-08-26 07:35:00,53.3,53.0,30.25,North,9,0.0,0.0,99,0.00,,,0.00,Wunderground v.1.15,2013-08-26 11:35:00,
2013-08-26 07:40:00,53.5,53.2,30.25,North,9,0.0,0.0,99,0.00,,,0.00,Wunderground v.1.15,2013-08-26 11:40:00,
2013-08-26 07:45:00,53.7,53.4,30.25,North,9,0.0,0.0,99,0.00,,,0.00,Wunderground v.1.15,2013-08-26 11:45:00,
2013-08-26 07:55:00,54.1,54.1,30.26,North,9,0.0,0.0,100,0.00,,,0.00,Wunderground v.1.15,2013-08-26 11:55:00,
2013-08-26 08:00:00,54.5,54.2,30.26,North,9,0.0,0.0,99,0.00,,,0.00,Wunderground v.1.15,2013-08-26 12:00:00,
2013-08-26 08:05:00,54.7,54.7,30.26,North,9,0.0,0.0,100,0.00,,,0.00,Wunderground v.1.15,2013-08-26 12:05:00,
2013-08-26 08:15:00,55.3,55.3,30.26,North,9,0.0,0.0,100,0.00,,,0.00,Wunderground v.1.15,2013-08-26 12:15:00,
2013-08-26 08:20:00,55.6,55.6,30.26,North,9,0.0,0.0,100,0.00,,,0.00,Wunderground v.1.15,2013-08-26 12:20:00,
2013-08-26 08:25:00,55.9,55.9,30.26,North,9,0.0,0.0,100,0.00,,,0.00,Wunderground v.1.15,2013-08-26 12:25:00,
2013-08-26 08:35:00,57.4,57.4,30.26,North,9,0.0,0.0,100,0.00,,,0.00,Wunderground v.1.15,2013-08-26 12:35:00,
2013-08-26 08:40:00,58.2,58.2,30.26,North,9,0.0,0.0,100,0.00,,,0.00,Wunderground v.1.15,2013-08-26 12:40:00,
2013-08-26 08:45:00,58.9,58.9,30.26,North,9,0.0,0.0,100,0.00,,,0.00,Wunderground v.1.15,2013-08-26 12:45:00,
2013-08-26 08:55:00,60.2,60.2,30.27,North,9,0.0,0.0,100,0.00,,,0.00,Wunderground v.1.15,2013-08-26 12:55:00,
2013-08-26 09:00:00,60.8,60.8,30.27,North,9,0.0,1.0,100,0.00,,,0.00,Wunderground v.1.15,2013-08-26 13:00:00,
2013-08-26 09:05:00,61.1,61.1,30.27,North,9,0.0,1.0,100,0.00,,,0.00,Wunderground v.1.15,2013-08-26 13:05:00,
2013-08-26 09:15:00,61.6,61.6,30.27,North,9,0.0,0.0,100,0.00,,,0.00,Wunderground v.1.15,2013-08-26 13:15:00,
2013-08-26 09:20:00,61.9,61.9,30.27,North,9,0.0,0.0,100,0.00,,,0.00,Wunderground v.1.15,2013-08-26 13:20:00,
2013-08-26 09:25:00,62.3,62.3,30.27,North,9,0.0,0.0,100,0.00,,,0.00,Wunderground v.1.15,2013-08-26 13:25:00,
2013-08-26 09:35:00,63.4,62.8,30.27,NNW,346,1.0,1.0,98,0.00,,,0.00,Wunderground v.1.15,2013-08-26 13:35:00,
2013-08-26 09:40:00,63.8,62.6,30.27,NNW,346,0.0,0.0,96,0.00,,,0.00,Wunderground v.1.15,2013-08-26 13:40:00,
2013-08-26 09:45:00,64.3,62.8,30.27,NNW,348,0.0,0.0,95,0.00,,,0.00,Wunderground v.1.15,2013-08-26 13:45:00,
2013-08-26 09:55:00,65.4,63.3,30.26,North,355,0.0,1.0,93,0.00,,,0.00,Wunderground v.1.15,2013-08-26 13:55:00,
2013-08-26 10:00:00,65.9,63.5,30.26,North,355,0.0,0.0,92,0.00,,,0.00,Wunderground v.1.15,2013-08-26 14:00:00,
2013-08-26 10:10:00,66.7,63.4,30.27,NE,50,0.0,0.0,89,0.00,,,0.00,Wunderground v.1.15,2013-08-26 14:10:00,
2013-08-26 10:15:00,67.2,63.5,30.27,NE,50,0.0,0.0,88,0.00,,,0.00,Wunderground v.1.15,2013-08-26 14:15:00,
2013-08-26 10:20:00,67.6,63.3,30.26,North,5,0.0,1.0,86,0.00,,,0.00,Wunderground v.1.15,2013-08-26 14:20:00,
2013-08-26 10:25:00,68.3,64.3,30.26,North,5,1.0,1.0,87,0.00,,,0.00,Wunderground v.1.15,2013-08-26 14:25:00,
2013-08-26 10:35:00,69.6,64.2,30.26,North,5,0.0,1.0,83,0.00,,,0.00,Wunderground v.1.15,2013-08-26 14:35:00,
2013-08-26 10:45:00,70.8,64.0,30.26,NE,34,0.0,0.0,79,0.00,,,0.00,Wunderground v.1.15,2013-08-26 14:45:00,
2013-08-26 10:50:00,71.3,64.4,30.26,NE,34,0.0,0.0,79,0.00,,,0.00,Wunderground v.1.15,2013-08-26 14:50:00,
2013-08-26 10:55:00,71.7,64.5,30.26,NNW,335,1.0,1.0,78,0.00,,,0.00,Wunderground v.1.15,2013-08-26 14:55:00,
2013-08-26 11:05:00,72.5,64.9,30.25,NNW,335,0.0,1.0,77,0.00,,,0.00,Wunderground v.1.15,2013-08-26 15:05:00,
2013-08-26 11:10:00,72.9,64.5,30.25,NNW,336,0.0,1.0,75,0.00,,,0.00,Wunderground v.1.15,2013-08-26 15:10:00,
2013-08-26 11:20:00,73.9,64.7,30.25,North,11,1.0,2.0,73,0.00,,,0.00,Wunderground v.1.15,2013-08-26 15:20:00,
2013-08-26 11:25:00,74.2,65.0,30.25,North,11,1.0,2.0,73,0.00,,,0.00,Wunderground v.1.15,2013-08-26 15:25:00,
2013-08-26 11:30:00,74.5,64.5,30.25,North,11,1.0,1.0,71,0.00,,,0.00,Wunderground v.1.15,2013-08-26 15:30:00,
2013-08-26 11:35:00,74.6,64.6,30.25,NNE,19,1.0,1.0,71,0.00,,,0.00,Wunderground v.1.15,2013-08-26 15:35:00,
2013-08-26 11:45:00,75.2,64.3,30.25,NE,40,1.0,1.0,69,0.00,,,0.00,Wunderground v.1.15,2013-08-26 15:45:00,
2013-08-26 11:50:00,75.7,64.4,30.25,NNW,332,1.0,1.0,68,0.00,,,0.00,Wunderground v.1.15,2013-08-26 15:50:00,
2013-08-26 12:00:00,76.2,64.0,30.24,SE,142,1.0,1.0,66,0.00,,,0.00,Wunderground v.1.15,2013-08-26 16:00:00,
2013-08-26 12:05:00,76.4,65.5,30.23,WNW,295,1.0,1.0,69,0.00,,,0.00,Wunderground v.1.15,2013-08-26 16:05:00,
2013-08-26 12:10:00,76.8,63.7,30.24,NNE,13,1.0,2.0,64,0.00,,,0.00,Wunderground v.1.15,2013-08-26 16:10:00,
2013-08-26 12:15:00,77.1,64.0,30.23,NNW,333,1.0,2.0,64,0.00,,,0.00,Wunderground v.1.15,2013-08-26 16:15:00,
2013-08-26 12:25:00,77.4,62.9,30.23,NNW,332,1.0,1.0,61,0.00,,,0.00,Wunderground v.1.15,2013-08-26 16:25:00,
2013-08-26 12:30:00,77.4,65.6,30.22,North,9,0.0,0.0,67,0.00,,,0.00,Wunderground v.1.15,2013-08-26 16:30:00,
2013-08-26 12:40:00,77.6,63.1,30.22,North,5,1.0,1.0,61,0.00,,,0.00,Wunderground v.1.15,2013-08-26 16:40:00,
2013-08-26 12:45:00,77.6,66.2,30.21,North,5,1.0,1.0,68,0.00,,,0.00,Wunderground v.1.15,2013-08-26 16:45:00,
2013-08-26 12:50:00,77.6,64.5,30.21,WNW,296,1.0,2.0,64,0.00,,,0.00,Wunderground v.1.15,2013-08-26 16:50:00,
2013-08-26 13:00:00,78.2,64.1,30.21,WNW,296,1.0,1.0,62,0.00,,,0.00,Wunderground v.1.15,2013-08-26 17:00:00,
2013-08-26 13:05:00,78.3,65.6,30.21,WNW,296,0.0,1.0,65,0.00,,,0.00,Wunderground v.1.15,2013-08-26 17:05:00,
2013-08-26 13:10:00,78.5,67.1,30.20,WNW,296,0.0,0.0,68,0.00,,,0.00,Wunderground v.1.15,2013-08-26 17:10:00,
2013-08-26 13:20:00,78.2,62.2,30.20,WNW,296,1.0,1.0,58,0.00,,,0.00,Wunderground v.1.15,2013-08-26 17:20:00,
2013-08-26 13:25:00,78.8,64.2,30.20,WNW,296,0.0,1.0,61,0.00,,,0.00,Wunderground v.1.15,2013-08-26 17:25:00,
2013-08-26 13:30:00,78.9,66.6,30.20,WNW,294,0.0,1.0,66,0.00,,,0.00,Wunderground v.1.15,2013-08-26 17:30:00,
2013-08-26 13:40:00,79.4,67.0,30.20,ESE,114,0.0,1.0,66,0.00,,,0.00,Wunderground v.1.15,2013-08-26 17:40:00,
2013-08-26 13:45:00,78.8,65.1,30.19,East,79,0.0,1.0,63,0.00,,,0.00,Wunderground v.1.15,2013-08-26 17:45:00,
2013-08-26 13:50:00,79.0,65.8,30.19,East,79,0.0,0.0,64,0.00,,,0.00,Wunderground v.1.15,2013-08-26 17:50:00,
2013-08-26 14:00:00,78.5,68.3,30.19,East,79,0.0,0.0,71,0.00,,,0.00,Wunderground v.1.15,2013-08-26 18:00:00,
2013-08-26 14:05:00,78.4,62.9,30.19,East,79,0.0,1.0,59,0.00,,,0.00,Wunderground v.1.15,2013-08-26 18:05:00,
2013-08-26 14:10:00,79.1,65.4,30.18,SSW,196,1.0,1.0,63,0.00,,,0.00,Wunderground v.1.15,2013-08-26 18:10:00,
2013-08-26 14:20:00,79.7,66.0,30.18,West,273,0.0,0.0,63,0.00,,,0.00,Wunderground v.1.15,2013-08-26 18:20:00,
2013-08-26 14:25:00,79.2,66.0,30.17,West,273,1.0,1.0,64,0.00,,,0.00,Wunderground v.1.15,2013-08-26 18:25:00,
2013-08-26 14:30:00,78.9,64.3,30.17,SSE,147,0.0,3.0,61,0.00,,,0.00,Wunderground v.1.15,2013-08-26 18:30:00,
2013-08-26 14:40:00,79.4,67.0,30.17,SSE,147,1.0,1.0,66,0.00,,,0.00,Wunderground v.1.15,2013-08-26 18:40:00,
2013-08-26 14:45:00,79.6,62.5,30.17,SSE,147,0.0,1.0,56,0.00,,,0.00,Wunderground v.1.15,2013-08-26 18:45:00,
2013-08-26 14:50:00,80.4,61.2,30.16,ESE,116,0.0,0.0,52,0.00,,,0.00,Wunderground v.1.15,2013-08-26 18:50:00,
2013-08-26 15:00:00,81.1,63.9,30.16,ENE,70,0.0,1.0,56,0.00,,,0.00,Wunderground v.1.15,2013-08-26 19:00:00,
2013-08-26 15:05:00,81.1,61.3,30.16,ENE,70,0.0,1.0,51,0.00,,,0.00,Wunderground v.1.15,2013-08-26 19:05:00,
2013-08-26 15:10:00,81.1,62.9,30.16,ENE,70,0.0,1.0,54,0.00,,,0.00,Wunderground v.1.15,2013-08-26 19:10:00,
2013-08-26 15:20:00,80.6,64.9,30.15,ENE,71,0.0,1.0,59,0.00,,,0.00,Wunderground v.1.15,2013-08-26 19:20:00,
2013-08-26 15:25:00,80.2,67.4,30.15,ENE,71,0.0,1.0,65,0.00,,,0.00,Wunderground v.1.15,2013-08-26 19:25:00,
2013-08-26 15:30:00,79.9,64.3,30.14,ENE,71,0.0,0.0,59,0.00,,,0.00,Wunderground v.1.15,2013-08-26 19:30:00,
2013-08-26 15:40:00,80.4,60.1,30.14,ESE,111,0.0,0.0,50,0.00,,,0.00,Wunderground v.1.15,2013-08-26 19:40:00,
2013-08-26 15:45:00,80.6,64.0,30.13,ESE,111,0.0,0.0,57,0.00,,,0.00,Wunderground v.1.15,2013-08-26 19:45:00,
2013-08-26 15:50:00,80.6,64.9,30.13,ESE,110,0.0,0.0,59,0.00,,,0.00,Wunderground v.1.15,2013-08-26 19:50:00,
2013-08-26 16:00:00,81.2,63.0,30.13,East,82,0.0,0.0,54,0.00,,,0.00,Wunderground v.1.15,2013-08-26 20:00:00,
2013-08-26 16:05:00,81.7,60.1,30.12,East,82,0.0,0.0,48,0.00,,,0.00,Wunderground v.1.15,2013-08-26 20:05:00,
2013-08-26 16:15:00,81.4,65.2,30.12,East,82,0.0,0.0,58,0.00,,,0.00,Wunderground v.1.15,2013-08-26 20:15:00,
2013-08-26 16:20:00,81.3,63.6,30.11,East,92,0.0,0.0,55,0.00,,,0.00,Wunderground v.1.15,2013-08-26 20:20:00,
2013-08-26 16:25:00,81.8,63.0,30.11,East,92,0.0,0.0,53,0.00,,,0.00,Wunderground v.1.15,2013-08-26 20:25:00,
2013-08-26 16:30:00,82.4,63.0,30.11,ENE,77,0.0,1.0,52,0.00,,,0.00,Wunderground v.1.15,2013-08-26 20:30:00,
2013-08-26 16:40:00,82.0,61.0,30.11,ENE,63,0.0,0.0,49,0.00,,,0.00,Wunderground v.1.15,2013-08-26 20:40:00,
2013-08-26 16:45:00,82.3,64.0,30.11,ESE,103,0.0,0.0,54,0.00,,,0.00,Wunderground v.1.15,2013-08-26 20:45:00,
2013-08-26 16:55:00,82.7,65.9,30.11,NNW,346,1.0,2.0,57,0.00,,,0.00,Wunderground v.1.15,2013-08-26 20:55:00,
2013-08-26 17:00:00,81.9,64.7,30.11,NNW,346,0.0,0.0,56,0.00,,,0.00,Wunderground v.1.15,2013-08-26 21:00:00,
2013-08-26 17:05:00,81.6,61.7,30.11,NNW,346,0.0,0.0,51,0.00,,,0.00,Wunderground v.1.15,2013-08-26 21:05:00,
2013-08-26 17:10:00,81.1,65.9,30.11,NNW,346,0.0,0.0,60,0.00,,,0.00,Wunderground v.1.15,2013-08-26 21:10:00,
2013-08-26 17:20:00,80.6,64.0,30.10,NNW,346,0.0,0.0,57,0.00,,,0.00,Wunderground v.1.15,2013-08-26 21:20:00,
2013-08-26 17:25:00,80.0,63.4,30.10,NNW,346,0.0,0.0,57,0.00,,,0.00,Wunderground v.1.15,2013-08-26 21:25:00,
2013-08-26 17:35:00,78.6,65.8,30.10,NNW,346,0.0,0.0,65,0.00,,,0.00,Wunderground v.1.15,2013-08-26 21:35:00,
2013-08-26 17:40:00,78.2,65.9,30.10,NNW,346,0.0,0.0,66,0.00,,,0.00,Wunderground v.1.15,2013-08-26 21:40:00,
2013-08-26 17:45:00,77.8,62.8,30.10,NNW,346,0.0,0.0,60,0.00,,,0.00,Wunderground v.1.15,2013-08-26 21:45:00,
2013-08-26 17:55:00,77.2,64.1,30.10,NNW,346,0.0,0.0,64,0.00,,,0.00,Wunderground v.1.15,2013-08-26 21:55:00,
2013-08-26 18:00:00,77.1,65.3,30.10,NNW,346,0.0,0.0,67,0.00,,,0.00,Wunderground v.1.15,2013-08-26 22:00:00,
2013-08-26 18:05:00,76.9,63.3,30.10,NNW,346,0.0,0.0,63,0.00,,,0.00,Wunderground v.1.15,2013-08-26 22:05:00,
2013-08-26 18:15:00,76.6,65.2,30.10,NNW,346,0.0,0.0,68,0.00,,,0.00,Wunderground v.1.15,2013-08-26 22:15:00,
2013-08-26 18:20:00,76.4,65.5,30.10,NNW,346,0.0,0.0,69,0.00,,,0.00,Wunderground v.1.15,2013-08-26 22:20:00,
2013-08-26 18:25:00,76.1,65.6,30.09,NNW,346,0.0,0.0,70,0.00,,,0.00,Wunderground v.1.15,2013-08-26 22:25:00,
2013-08-26 18:35:00,75.7,65.6,30.09,NNW,346,0.0,0.0,71,0.00,,,0.00,Wunderground v.1.15,2013-08-26 22:35:00,
2013-08-26 18:40:00,75.4,65.3,30.09,NNW,346,0.0,0.0,71,0.00,,,0.00,Wunderground v.1.15,2013-08-26 22:40:00,
2013-08-26 18:45:00,75.1,65.5,30.09,NNW,346,0.0,0.0,72,0.00,,,0.00,Wunderground v.1.15,2013-08-26 22:45:00,
2013-08-26 18:55:00,74.5,66.1,30.08,NNW,346,0.0,0.0,75,0.00,,,0.00,Wunderground v.1.15,2013-08-26 22:55:00,
2013-08-26 19:00:00,74.3,66.2,30.08,NNW,346,0.0,0.0,76,0.00,,,0.00,Wunderground v.1.15,2013-08-26 23:00:00,
2013-08-26 19:05:00,73.9,65.9,30.08,NNW,346,0.0,0.0,76,0.00,,,0.00,Wunderground v.1.15,2013-08-26 23:05:00,
2013-08-26 19:15:00,73.2,65.6,30.08,NNW,346,0.0,0.0,77,0.00,,,0.00,Wunderground v.1.15,2013-08-26 23:15:00,
2013-08-26 19:20:00,73.1,66.9,30.08,South,175,0.0,0.0,81,0.00,,,0.00,Wunderground v.1.15,2013-08-26 23:20:00,
2013-08-26 19:25:00,72.8,66.3,30.08,NW,315,0.0,0.0,80,0.00,,,0.00,Wunderground v.1.15,2013-08-26 23:25:00,
2013-08-26 19:35:00,72.3,66.1,30.08,NW,315,0.0,0.0,81,0.00,,,0.00,Wunderground v.1.15,2013-08-26 23:35:00,
2013-08-26 19:40:00,72.0,66.6,30.08,NW,315,0.0,0.0,83,0.00,,,0.00,Wunderground v.1.15,2013-08-26 23:40:00,
2013-08-26 19:45:00,71.7,66.6,30.08,NW,315,0.0,0.0,84,0.00,,,0.00,Wunderground v.1.15,2013-08-26 23:45:00,
2013-08-26 19:55:00,71.2,66.5,30.08,NW,315,0.0,0.0,85,0.00,,,0.00,Wunderground v.1.15,2013-08-26 23:55:00,
2013-08-26 20:00:00,70.9,66.8,30.08,NW,315,0.0,0.0,87,0.00,,,0.00,Wunderground v.1.15,2013-08-27 00:00:00,
2013-08-26 20:10:00,70.3,66.6,30.08,NW,315,0.0,0.0,88,0.00,,,0.00,Wunderground v.1.15,2013-08-27 00:10:00,
2013-08-26 20:15:00,70.0,66.3,30.08,NW,315,0.0,0.0,88,0.00,,,0.00,Wunderground v.1.15,2013-08-27 00:15:00,
2013-08-26 20:20:00,69.5,66.1,30.08,NW,315,0.0,0.0,89,0.00,,,0.00,Wunderground v.1.15,2013-08-27 00:20:00,
2013-08-26 20:25:00,69.1,66.0,30.08,NW,315,0.0,0.0,90,0.00,,,0.00,Wunderground v.1.15,2013-08-27 00:25:00,
2013-08-26 20:35:00,68.4,65.4,30.08,NW,315,0.0,0.0,90,0.00,,,0.00,Wunderground v.1.15,2013-08-27 00:35:00,
2013-08-26 20:45:00,67.8,65.4,30.08,NW,315,0.0,0.0,92,0.00,,,0.00,Wunderground v.1.15,2013-08-27 00:45:00,
2013-08-26 20:50:00,67.6,64.9,30.08,NW,315,0.0,0.0,91,0.00,,,0.00,Wunderground v.1.15,2013-08-27 00:50:00,
2013-08-26 20:55:00,67.5,65.4,30.08,NW,315,0.0,0.0,93,0.00,,,0.00,Wunderground v.1.15,2013-08-27 00:55:00,
2013-08-26 21:05:00,67.1,65.0,30.08,NW,315,0.0,0.0,93,0.00,,,0.00,Wunderground v.1.15,2013-08-27 01:05:00,
2013-08-26 21:10:00,67.0,64.9,30.08,NW,315,0.0,0.0,93,0.00,,,0.00,Wunderground v.1.15,2013-08-27 01:10:00,
2013-08-26 21:20:00,66.6,64.8,30.09,NW,315,0.0,0.0,94,0.00,,,0.00,Wunderground v.1.15,2013-08-27 01:20:00,
2013-08-26 21:25:00,66.3,64.5,30.08,NW,315,0.0,0.0,94,0.00,,,0.00,Wunderground v.1.15,2013-08-27 01:25:00,
2013-08-26 21:30:00,66.1,64.3,30.08,NW,315,0.0,0.0,94,0.00,,,0.00,Wunderground v.1.15,2013-08-27 01:30:00,
2013-08-26 21:35:00,65.8,64.0,30.08,NW,315,0.0,0.0,94,0.00,,,0.00,Wunderground v.1.15,2013-08-27 01:35:00,
2013-08-26 21:45:00,65.4,63.9,30.08,NW,315,0.0,0.0,95,0.00,,,0.00,Wunderground v.1.15,2013-08-27 01:45:00,
2013-08-26 21:50:00,65.2,63.7,30.08,NW,315,0.0,0.0,95,0.00,,,0.00,Wunderground v.1.15,2013-08-27 01:50:00,
2013-08-26 22:00:00,64.9,63.4,30.08,NW,315,0.0,0.0,95,0.00,,,0.00,Wunderground v.1.15,2013-08-27 02:00:00,
2013-08-26 22:05:00,64.7,63.2,30.08,NW,315,0.0,0.0,95,0.00,,,0.00,Wunderground v.1.15,2013-08-27 02:05:00,
2013-08-26 22:10:00,64.5,63.0,30.08,NW,315,0.0,0.0,95,0.00,,,0.00,Wunderground v.1.15,2013-08-27 02:10:00,
2013-08-26 22:20:00,64.2,63.0,30.08,NW,315,0.0,0.0,96,0.00,,,0.00,Wunderground v.1.15,2013-08-27 02:20:00,
2013-08-26 22:25:00,64.1,62.6,30.08,NW,315,0.0,0.0,95,0.00,,,0.00,Wunderground v.1.15,2013-08-27 02:25:00,
2013-08-26 22:30:00,63.9,62.4,30.08,NW,315,0.0,0.0,95,0.00,,,0.00,Wunderground v.1.15,2013-08-27 02:30:00,
2013-08-26 23:05:00,63.2,62.0,30.09,NW,315,0.0,0.0,96,0.00,,,0.00,Wunderground v.1.15,2013-08-27 03:05:00,
2013-08-26 23:10:00,63.1,61.9,30.09,NW,315,0.0,0.0,96,0.00,,,0.00,Wunderground v.1.15,2013-08-27 03:10:00,
2013-08-26 23:15:00,63.0,61.8,30.09,NW,315,0.0,0.0,96,0.00,,,0.00,Wunderground v.1.15,2013-08-27 03:15:00,
2013-08-26 23:25:00,62.9,61.7,30.09,NW,315,0.0,0.0,96,0.00,,,0.00,Wunderground v.1.15,2013-08-27 03:25:00,
2013-08-26 23:30:00,62.8,61.9,30.09,NW,315,0.0,0.0,97,0.00,,,0.00,Wunderground v.1.15,2013-08-27 03:30:00,
2013-08-26 23:35:00,62.7,61.8,30.09,NW,315,0.0,0.0,97,0.00,,,0.00,Wunderground v.1.15,2013-08-27 03:35:00,
2013-08-26 23:40:00,62.7,61.8,30.09,NW,315,0.0,0.0,97,0.00,,,0.00,Wunderground v.1.15,2013-08-27 03:40:00,
2013-08-26 23:50:00,62.8,62.2,30.09,NW,315,0.0,0.0,98,0.00,,,0.00,Wunderground v.1.15,2013-08-27 03:50:00,
2013-08-26 23:55:00,62.7,61.8,30.09,NW,315,0.0,0.0,97,0.00,,,0.00,Wunderground v.1.15,2013-08-27 03:55:00,